Date,TemperatureHighF,TemperatureAvgF,TemperatureLowF,DewpointHighF,DewpointAvgF,DewpointLowF,HumidityHigh,HumidityAvg,HumidityLow,PressureMaxIn,PressureMinIn,WindSpeedMaxMPH,WindSpeedAvgMPH,GustSpeedMaxMPH,PrecipitationSumIn
2013-1-1,60.7,50.1,41.7,42.2,36.1,25.1,83,61,36,30.18,30.02,6,1,6,0.00
2013-1-2,65.7,53.4,42.2,35.6,28.3,16.5,72,40,21,30.07,29.96,15,2,18,0.00
2013-1-3,70.2,53.8,39.6,46.7,32.5,21.2,75,47,16,30.11,29.98,9,1,10,0.00
2013-1-4,66.2,52.8,40.8,34.8,25.8,17.8,66,38,16,30.21,30.10,8,1,11,0.00
2013-1-6,57.6,51.7,46.0,50.2,45.9,43.6,95,81,63,30.14,29.95,13,2,17,0.11
2013-1-7,66.8,52.0,42.6,46.5,40.7,28.5,96,71,25,30.03,29.91,7,1,11,0.01
2013-1-8,70.8,53.9,42.1,52.8,43.3,35.0,88,69,40,30.05,29.95,6,1,6,0.00
2013-1-9,70.0,55.7,45.9,52.3,46.0,38.6,91,72,32,30.07,29.95,6,1,8,0.00
2013-1-10,54.1,52.2,50.7,50.0,48.3,42.2,94,87,66,29.95,29.89,11,2,16,0.02
2013-1-11,47.1,39.6,34.4,32.6,29.6,27.1,82,68,46,30.13,30.03,4,1,7,0.00
2013-1-12,55.2,43.2,32.6,31.5,26.5,22.4,75,54,29,30.10,30.01,9,1,11,0.00
2013-1-13,55.1,42.9,35.7,35.2,28.7,23.0,78,60,29,30.10,30.00,9,1,12,0.00
2013-1-14,50.0,39.9,35.6,27.6,15.0,0.2,66,39,14,30.21,30.06,12,1,18,0.00
2013-1-15,59.5,43.9,34.5,29.8,19.1,10.7,54,38,22,30.39,30.25,10,1,12,0.00
2013-1-16,69.6,53.1,38.4,41.1,33.1,27.2,69,49,30,30.29,30.10,6,1,8,0.00
2013-1-17,79.7,59.8,45.5,35.6,27.9,17.2,59,33,10,30.10,29.97,6,1,11,0.00
2013-1-18,78.7,62.6,48.4,36.2,27.9,21.0,47,29,14,30.06,29.97,7,1,10,0.00
2013-1-19,79.3,59.7,50.5,36.5,26.6,20.3,41,29,14,30.11,29.99,6,1,6,0.00
2013-1-20,80.2,61.1,47.8,33.3,25.1,15.2,45,27,9,30.06,29.92,7,1,9,0.00
2013-1-21,79.3,63.6,48.5,31.5,20.7,12.0,45,21,9,30.01,29.92,11,2,12,0.00
2013-1-22,54.7,53.5,51.4,26.0,22.1,18.5,37,29,24,29.99,29.98,2,1,2,0.00
2013-1-23,77.7,68.7,57.6,50.5,36.9,26.6,44,32,22,30.01,29.95,8,2,11,0.00
2013-1-24,65.6,57.7,54.5,56.9,52.6,47.7,91,83,68,30.12,30.02,7,1,10,0.32
2013-1-25,66.0,60.3,58.5,61.9,57.8,55.6,95,91,84,30.04,29.92,6,1,10,0.31
2013-1-26,65.8,59.7,54.8,62.1,58.4,53.9,98,96,84,29.94,29.82,12,1,12,0.06
2013-1-27,58.5,53.3,47.6,54.3,50.0,44.8,98,89,69,29.98,29.90,14,3,14,0.03
2013-1-28,59.9,49.3,40.1,46.0,39.3,32.6,93,71,36,30.12,29.94,14,1,16,0.01
2013-1-29,59.8,49.0,39.8,43.6,39.4,34.4,85,71,49,30.17,30.09,12,1,12,0.00
2013-1-30,69.7,55.2,42.3,47.1,42.5,39.0,90,65,34,30.27,30.14,9,1,10,0.00
2013-1-31,79.3,60.3,45.7,49.8,44.0,38.2,81,58,23,30.17,30.01,8,1,10,0.00
2013-2-1,75.4,63.5,47.7,50.3,44.6,39.5,78,52,32,30.10,30.02,6,1,8,0.00
2013-2-2,75.2,62.8,53.4,53.8,48.7,44.2,84,61,35,30.11,30.02,5,1,6,0.00
2013-2-3,71.9,62.7,51.9,54.4,49.9,45.6,86,64,42,30.06,29.93,9,1,10,0.00
2013-2-4,69.5,56.2,47.0,57.0,49.5,43.3,96,80,54,30.02,29.90,7,1,8,0.00
2013-2-5,56.3,51.9,48.3,51.5,49.4,47.5,97,91,81,30.04,29.92,7,1,7,0.01
2013-2-6,61.6,54.5,47.5,50.6,48.1,45.8,94,80,59,30.05,29.94,10,1,11,0.00
2013-2-7,60.9,51.5,43.3,52.4,47.0,42.0,96,85,71,30.07,29.94,10,1,11,0.00
2013-2-8,53.6,47.8,41.2,47.8,42.5,38.9,92,82,66,29.95,29.84,17,2,20,0.26
2013-2-9,57.9,46.1,37.2,42.5,39.4,35.6,95,79,48,30.05,29.87,11,1,12,0.01
2013-2-10,55.0,47.7,40.0,44.8,40.7,34.4,87,77,61,30.06,29.96,9,1,9,0.00
2013-2-11,60.3,49.2,39.1,46.8,40.7,36.2,91,74,43,30.18,30.00,12,2,15,0.00
2013-2-12,63.6,50.3,38.9,48.5,39.7,31.0,88,68,39,30.29,30.17,12,1,12,0.00
2013-2-13,68.5,47.9,39.9,46.2,37.3,34.0,84,69,33,30.20,30.07,7,1,10,0.00
2013-2-14,75.4,52.6,42.1,49.3,42.1,37.3,86,71,35,30.15,29.98,6,1,8,0.00
2013-2-15,82.7,73.3,53.2,39.9,31.2,20.3,54,24,10,30.11,30.02,10,2,15,0.00
2013-2-16,78.0,70.5,58.2,38.1,29.8,23.8,34,23,14,30.07,30.05,4,1,6,0.00
2013-2-17,64.6,56.2,47.5,51.1,45.9,30.5,89,70,42,29.97,29.86,11,3,13,0.00
2013-2-18,62.7,53.1,50.0,49.4,46.5,44.3,88,79,58,30.00,29.90,11,3,12,0.00
2013-2-19,50.9,50.0,46.8,44.7,41.9,40.3,92,74,67,29.90,29.69,6,2,7,0.38
2013-2-20,56.6,52.0,44.6,42.2,37.0,30.9,78,57,40,29.89,29.65,18,3,18,0.00
2013-2-21,59.8,51.6,43.5,46.4,43.5,40.0,88,74,52,30.03,29.91,10,2,11,0.00
2013-2-22,65.1,47.2,39.3,47.4,38.9,35.1,92,75,36,30.14,30.03,13,1,15,0.00
2013-2-23,63.2,51.4,40.7,47.6,39.7,33.7,86,66,38,30.10,29.87,9,2,12,0.00
2013-3-1,80.0,76.3,71.0,27.6,22.6,20.4,18,14,11,30.18,30.17,16,6,16,0.00
2013-3-2,85.4,64.2,55.6,40.2,31.4,23.7,44,31,11,30.13,30.00,7,1,8,0.00
2013-3-3,78.3,64.6,55.1,44.8,42.5,31.4,63,45,18,30.02,29.98,6,2,8,0.00
2013-3-4,67.4,57.0,51.0,53.5,50.2,47.5,90,79,60,30.03,29.95,11,2,12,0.00
2013-3-5,62.4,54.0,51.4,53.8,50.7,48.1,92,89,72,30.07,29.98,12,1,12,0.00
2013-3-6,54.9,53.6,51.4,48.4,46.1,44.7,89,76,71,30.08,30.06,3,1,3,0.00
2013-3-7,58.3,53.0,50.9,50.3,49.3,46.6,95,88,68,29.95,29.88,8,1,11,0.09
2013-3-8,57.4,51.4,46.8,48.2,44.8,40.4,95,79,61,29.98,29.80,12,2,16,0.56
2013-3-9,59.3,51.4,49.1,48.2,46.8,45.3,93,85,65,30.08,29.97,10,2,12,0.00
2013-3-10,74.1,65.7,50.2,51.2,44.2,33.8,83,49,24,30.20,30.08,11,3,16,0.00
2013-3-11,75.9,67.8,49.3,46.2,42.3,35.0,63,40,31,30.11,29.97,7,2,9,0.00
2013-3-12,80.6,61.2,45.3,53.9,47.8,40.0,95,67,25,30.02,29.93,6,1,9,0.00
2013-3-13,87.2,64.0,49.7,57.7,51.5,42.5,94,69,22,30.03,29.93,6,1,9,0.00
2013-3-14,83.5,58.9,50.3,60.1,52.0,47.3,98,82,32,30.01,29.92,8,1,8,0.00
2013-3-15,78.7,61.1,52.6,57.0,53.4,51.0,97,80,39,29.97,29.87,8,2,9,0.00
2013-3-16,72.2,61.4,50.8,55.7,52.6,49.7,96,74,56,29.92,29.83,10,3,13,0.00
2013-3-17,69.8,58.5,52.5,55.5,52.4,50.0,91,81,59,29.93,29.86,9,3,11,0.00
2013-3-18,63.6,56.0,53.9,52.9,51.0,49.7,90,83,67,30.02,29.92,10,2,11,0.00
2013-3-19,64.9,60.6,55.5,54.6,53.2,51.9,89,77,68,30.04,29.98,5,2,8,0.00
2013-3-20,71.9,53.7,50.5,57.5,51.1,48.9,96,91,59,30.03,29.95,5,0,7,0.00
2013-3-21,72.0,62.3,52.3,56.4,52.8,50.0,92,72,51,29.95,29.74,12,2,12,0.00
2013-3-22,67.9,59.2,52.0,55.4,52.4,50.0,93,79,61,29.82,29.74,12,2,13,0.00
2013-3-23,68.8,62.4,54.6,54.9,52.7,50.9,88,71,55,29.95,29.78,10,3,11,0.00
2013-3-24,74.0,62.8,53.9,55.3,53.3,50.8,96,73,45,29.95,29.81,8,2,11,0.00
2013-3-25,78.0,59.3,49.9,57.5,52.1,48.5,97,80,44,29.91,29.82,10,1,11,0.00
2013-3-26,71.1,58.2,52.4,56.5,52.6,49.8,95,83,51,29.91,29.82,9,2,11,0.00
2013-3-27,65.8,59.7,53.4,54.5,52.3,50.6,92,77,63,29.98,29.85,11,2,12,0.00
2013-3-28,74.3,60.8,53.3,57.7,53.2,50.5,92,78,52,30.00,29.93,10,2,13,0.00
2013-3-29,72.4,60.4,55.1,59.3,55.1,52.7,94,84,62,30.04,29.96,11,2,12,0.00
2013-3-30,72.8,61.1,54.2,58.6,54.1,48.2,94,79,59,30.06,29.98,10,2,12,0.00
2013-3-31,64.4,54.5,52.3,56.0,51.5,50.0,94,90,71,30.06,30.02,6,1,9,0.00
2013-4-2,69.8,61.7,54.8,55.4,53.3,51.7,90,75,58,30.03,29.92,11,2,12,0.00
2013-4-3,77.5,61.0,52.6,59.2,54.4,50.5,94,81,48,30.01,29.91,9,2,13,0.00
2013-4-4,77.0,68.0,56.3,58.3,55.2,53.4,92,66,46,30.03,29.93,11,3,14,0.00
2013-4-5,67.0,59.9,56.3,57.4,55.1,53.4,95,85,70,30.02,29.93,11,2,12,0.01
2013-4-6,69.8,60.3,57.0,57.8,54.4,53.0,90,81,63,30.01,29.93,9,2,11,0.00
2013-4-7,70.4,57.7,50.1,56.6,52.7,48.2,95,84,59,29.91,29.75,12,2,14,0.00
2013-4-8,65.3,58.1,51.9,54.2,48.3,41.3,91,72,44,29.76,29.61,21,4,21,0.00
2013-4-9,71.6,59.1,46.7,49.4,41.2,28.1,87,56,21,29.94,29.75,14,2,17,0.00
2013-4-10,55.3,50.1,46.7,43.6,39.5,36.9,78,67,56,30.01,29.93,6,1,6,0.00
2013-4-11,72.5,58.2,50.8,54.6,44.6,35.7,86,62,34,29.94,29.73,16,2,18,0.00
2013-4-12,73.2,60.7,55.7,56.2,53.2,51.0,91,77,53,29.83,29.70,12,3,13,0.00
2013-4-13,57.2,56.5,56.1,54.0,53.6,53.2,91,90,89,29.83,29.79,5,1,6,0.00
2013-4-15,61.8,57.8,53.2,55.0,51.7,48.2,92,80,71,29.85,29.79,14,4,15,0.01
2013-4-16,62.0,55.2,48.5,48.2,45.1,39.3,83,70,45,29.92,29.80,15,3,17,0.00
2013-4-17,71.7,56.5,44.4,43.0,33.9,22.2,83,49,16,30.05,29.92,20,2,25,0.00
2013-4-18,79.6,66.0,49.1,34.2,23.3,11.1,54,23,8,30.11,30.02,18,3,18,0.00
2013-4-19,86.3,67.9,48.7,39.5,27.5,14.7,54,27,8,30.08,29.89,14,2,17,0.00
2013-4-20,84.6,66.9,50.6,55.5,46.1,33.0,87,53,21,29.93,29.80,9,2,10,0.00
2013-4-21,79.9,63.7,54.3,58.5,53.9,42.7,96,75,27,29.94,29.86,11,2,12,0.00
2013-4-22,73.5,60.1,53.6,56.7,53.3,51.2,93,80,52,29.94,29.84,11,2,13,0.00
2013-4-23,72.7,60.9,55.3,55.7,52.6,50.6,88,75,54,29.91,29.78,10,2,12,0.00
2013-4-24,61.8,58.2,56.6,55.3,52.9,49.8,92,83,67,29.92,29.83,9,2,10,0.04
2013-4-25,70.7,60.5,55.5,54.7,52.8,50.3,91,77,51,30.05,29.89,14,2,14,0.00
2013-4-26,77.6,63.5,50.8,55.2,52.3,48.3,92,69,43,30.08,30.01,13,2,15,0.00
2013-4-27,57.2,53.7,51.4,53.7,51.5,49.7,96,92,88,30.08,30.03,3,0,4,0.00
2013-4-28,79.2,67.3,57.1,61.5,57.8,55.0,93,73,54,29.89,29.79,9,3,10,0.00
2013-4-29,73.2,61.4,55.9,59.9,55.9,53.8,95,83,61,29.84,29.71,11,3,11,0.00
2013-4-30,68.1,60.4,56.7,57.0,54.3,52.6,89,81,66,29.83,29.75,12,4,12,0.00
2013-5-1,58.8,58.4,57.9,55.6,55.3,54.9,91,89,88,29.86,29.83,5,1,9,0.00
2013-5-2,94.5,78.6,63.5,56.4,46.4,29.3,77,38,10,29.94,29.89,11,2,11,0.00
2013-5-3,92.5,74.8,57.5,56.0,35.2,4.8,78,34,4,29.94,29.70,11,2,14,0.00
2013-5-4,69.3,62.0,57.1,57.5,55.2,52.5,93,79,64,29.79,29.68,14,4,18,0.00
2013-5-5,64.3,60.1,57.2,55.5,53.7,51.8,92,80,67,29.88,29.76,13,4,15,0.03
2013-5-6,63.2,59.0,56.5,58.8,56.6,54.8,96,92,76,29.93,29.83,12,3,16,0.52
2013-5-7,70.1,60.8,56.2,56.4,53.4,46.2,92,78,47,30.01,29.91,15,2,16,0.02
2013-5-8,67.9,61.4,54.5,57.3,53.2,48.7,93,76,55,30.03,29.99,13,2,14,0.00
2013-5-9,70.1,61.8,52.1,58.2,54.6,50.1,94,78,61,30.03,29.96,11,2,12,0.00
2013-5-10,81.6,66.4,56.5,62.6,57.9,53.9,92,76,50,30.01,29.93,11,2,12,0.00
2013-5-11,88.5,69.3,58.2,65.1,60.4,56.2,96,77,43,30.01,29.89,10,1,10,0.00
2013-5-12,96.9,76.5,60.5,67.4,60.1,51.5,97,63,25,29.97,29.82,10,1,11,0.00
2013-5-13,99.1,81.4,63.8,60.9,55.3,48.1,85,46,20,29.88,29.78,14,1,14,0.00
2013-5-14,84.0,69.6,59.0,61.6,57.0,54.0,86,65,43,29.89,29.81,11,2,13,0.00
2013-5-15,73.2,63.1,58.6,59.0,55.9,54.3,87,78,57,29.96,29.88,12,3,14,0.00
2013-5-16,72.7,63.6,59.3,59.5,56.1,53.5,85,77,59,29.91,29.82,12,3,13,0.00
2013-5-17,71.8,64.6,60.0,59.3,56.8,54.5,88,76,62,29.93,29.83,11,3,16,0.00
2013-5-18,72.6,64.8,58.1,59.3,57.1,55.0,91,77,60,29.96,29.89,12,2,13,0.00
2013-5-19,73.6,64.7,56.1,60.4,57.4,53.8,93,78,58,29.92,29.81,12,2,12,0.00
2013-5-20,83.4,66.7,56.3,63.8,58.8,53.9,93,78,46,29.88,29.81,11,2,12,0.00
2013-5-21,80.8,66.4,59.9,64.1,59.8,57.9,94,81,54,29.87,29.76,12,2,12,0.00
2013-5-22,72.1,64.7,61.2,59.4,56.8,55.2,88,76,61,29.78,29.71,12,3,14,0.00
2013-5-23,63.2,59.8,58.0,55.7,54.2,53.1,86,82,71,29.83,29.75,8,2,11,0.00
2013-5-24,70.0,62.1,55.9,57.0,53.5,51.2,86,74,57,29.93,29.84,13,3,13,0.00
2013-5-25,70.7,59.8,52.0,57.0,52.9,48.9,90,79,60,29.95,29.90,10,2,11,0.00
2013-5-26,69.8,62.3,55.5,57.3,54.5,51.9,88,76,61,29.98,29.92,12,3,14,0.00
2013-5-27,74.4,63.5,53.7,59.9,56.2,51.4,93,78,54,29.94,29.80,13,2,14,0.00
2013-5-28,74.4,66.1,60.6,60.2,57.6,55.0,89,75,56,29.82,29.68,12,3,13,0.00
2013-5-29,79.6,67.7,59.0,62.5,59.2,56.4,92,76,52,29.74,29.65,10,2,11,0.00
2013-5-30,76.6,66.0,58.0,62.9,59.3,56.0,93,80,60,29.82,29.69,11,2,14,0.00
2013-5-31,79.4,67.3,60.6,63.0,59.7,57.1,90,78,56,29.84,29.74,10,3,13,0.00
2013-6-1,84.5,68.3,62.1,65.9,61.4,59.1,91,80,53,29.79,29.69,12,2,13,0.00
2013-6-2,64.0,62.5,61.4,60.9,59.7,58.8,92,90,89,29.77,29.69,6,1,6,0.00
2013-6-3,72.4,63.5,59.9,60.9,58.3,57.1,93,84,64,29.81,29.73,10,2,14,0.00
2013-6-4,73.5,64.1,60.3,60.8,57.7,56.4,90,80,60,29.88,29.81,12,2,12,0.00
2013-6-5,78.4,66.9,60.4,61.0,58.3,56.8,88,75,54,29.92,29.83,13,2,17,0.00
2013-6-6,73.7,63.8,59.5,62.4,58.2,56.5,90,82,65,29.88,29.83,10,2,12,0.00
2013-6-7,74.0,65.0,60.1,61.7,58.7,56.7,90,81,64,29.84,29.72,10,2,12,0.00
2013-6-8,69.8,62.1,59.8,61.5,58.1,56.9,91,87,73,29.80,29.72,11,2,13,0.00
2013-6-9,73.4,63.3,59.7,62.3,58.2,56.3,91,84,67,29.86,29.80,12,2,12,0.00
2013-6-10,75.7,68.9,59.4,60.7,57.5,55.0,87,68,53,29.88,29.82,11,3,14,0.00
2013-6-11,69.7,61.2,58.4,61.9,58.2,56.2,93,90,68,29.85,29.82,9,1,9,0.00
2013-6-12,75.5,64.7,60.9,63.1,59.9,58.6,94,85,63,29.95,29.84,10,2,12,0.00
2013-6-13,76.4,67.0,61.0,62.9,59.8,57.8,90,79,60,29.94,29.82,11,2,13,0.00
2013-6-14,66.4,61.5,60.2,60.2,58.0,57.0,90,88,79,29.85,29.82,6,2,7,0.00
2013-6-15,71.6,60.7,58.1,58.5,55.7,54.7,89,84,61,29.89,29.82,7,2,10,0.00
2013-6-16,70.5,61.7,59.9,58.6,56.3,55.2,86,82,65,29.96,29.89,5,1,6,0.00
2013-6-17,80.5,66.1,59.2,64.1,59.5,57.0,94,81,55,29.91,29.81,11,2,12,0.00
2013-6-18,77.1,63.6,58.2,62.7,59.0,56.8,96,86,59,29.85,29.79,11,2,13,0.00
2013-6-19,71.7,62.1,61.0,60.3,57.6,56.8,90,85,66,29.80,29.74,5,1,6,0.00
2013-6-20,81.2,67.8,58.8,61.0,57.8,50.5,95,75,35,29.79,29.72,11,2,12,0.00
2013-6-21,78.4,67.8,59.2,61.9,59.3,56.9,94,76,51,29.83,29.75,11,2,13,0.00
2013-6-22,79.4,69.5,60.6,62.0,59.5,57.3,91,72,53,29.84,29.73,12,3,13,0.00
2013-6-23,74.0,66.3,60.7,61.1,58.4,56.6,87,76,60,29.81,29.73,10,3,14,0.00
2013-6-24,75.6,64.9,60.5,62.1,58.6,55.9,93,81,61,29.88,29.76,12,3,12,0.00
2013-6-25,79.9,67.2,60.4,65.5,60.8,57.9,93,81,58,29.92,29.82,12,1,12,0.00
2013-6-26,89.0,79.7,63.9,67.7,65.1,62.1,94,63,46,29.90,29.81,9,2,11,0.00
2013-6-27,92.6,84.0,65.0,68.3,65.5,62.9,94,56,41,29.94,29.88,10,2,11,0.00
2013-6-28,96.1,84.7,63.2,69.4,65.2,61.3,95,56,35,29.90,29.78,8,2,10,0.00
2013-6-29,95.2,75.8,65.1,69.4,65.0,62.7,93,73,39,29.80,29.64,9,1,10,0.00
2013-6-30,88.0,76.5,67.5,68.7,65.9,62.8,90,71,48,29.73,29.64,12,3,17,0.00
2013-7-1,95.0,73.2,65.4,68.5,63.3,55.8,93,75,29,29.81,29.72,8,1,12,0.00
2013-7-3,89.5,73.9,64.8,69.6,65.3,61.8,94,76,51,29.86,29.72,10,2,12,0.00
2013-7-4,85.7,71.5,63.7,67.4,63.9,61.8,95,79,53,29.76,29.68,8,2,10,0.00
2013-7-5,81.6,70.3,64.4,66.6,62.8,60.5,89,78,59,29.77,29.69,10,2,12,0.00
2013-7-6,80.6,71.0,65.6,67.5,63.8,61.6,88,78,63,29.76,29.69,10,2,12,0.00
2013-7-7,86.8,71.4,64.7,68.1,64.0,62.0,91,79,52,29.78,29.68,11,2,13,0.00
2013-7-8,91.9,76.5,62.4,68.1,63.9,60.7,96,70,40,29.84,29.75,8,2,11,0.00
2013-7-9,86.0,70.9,64.4,67.9,63.4,60.8,91,78,48,29.93,29.81,13,2,15,0.00
2013-7-10,85.4,69.9,67.7,65.6,65.2,63.5,90,85,48,29.89,29.85,2,0,3,0.00
2013-7-11,77.8,70.3,66.3,69.5,65.7,63.5,92,85,74,29.89,29.81,7,2,8,0.01
2013-7-12,84.3,72.3,66.4,70.2,65.8,62.9,92,81,59,29.86,29.77,10,2,12,0.00
2013-7-13,83.9,76.6,65.2,68.0,65.1,61.2,93,69,54,29.87,29.77,10,3,13,0.00
2013-7-14,87.9,78.2,65.9,68.1,64.8,60.4,91,65,41,29.85,29.75,9,3,11,0.00
2013-7-15,87.7,72.4,64.7,67.3,63.3,56.1,93,76,39,29.79,29.71,10,2,11,0.00
2013-7-16,86.4,70.3,61.7,65.4,60.1,52.7,95,74,33,29.90,29.77,9,2,11,0.00
2013-7-17,91.1,75.3,57.5,63.4,55.3,30.9,95,60,12,29.94,29.86,9,2,11,0.00
2013-7-18,86.8,71.1,60.1,65.7,60.9,57.5,92,73,44,29.91,29.77,9,2,12,0.00
2013-7-19,81.4,70.7,63.0,66.7,63.1,60.6,92,78,60,29.83,29.75,9,3,11,0.00
2013-7-20,73.4,67.5,64.0,64.9,62.2,60.6,89,84,73,29.81,29.72,8,2,9,0.00
2013-7-21,72.5,68.9,65.2,65.6,63.7,62.0,90,84,78,29.82,29.76,5,2,8,0.00
2013-7-22,83.4,70.1,63.8,67.6,63.8,61.4,93,82,57,29.90,29.83,11,2,12,0.00
2013-7-23,84.0,75.0,64.6,66.7,63.9,61.8,92,70,51,29.95,29.84,12,3,13,0.00
2013-7-24,85.6,74.9,63.3,67.4,64.1,60.6,91,70,53,29.89,29.82,10,2,12,0.00
2013-7-25,65.0,63.8,63.2,61.7,61.2,60.8,92,91,89,29.89,29.86,3,1,5,0.00
2013-8-10,77.0,69.7,61.1,61.5,59.2,57.3,88,70,57,29.97,29.88,9,3,12,0.00
2013-8-11,80.2,64.2,59.6,62.9,58.6,56.6,92,84,54,29.93,29.84,9,1,11,0.00
2013-8-12,80.5,73.2,62.0,64.3,62.2,59.3,91,70,53,29.91,29.82,9,3,11,0.00
2013-8-13,85.7,67.7,61.8,66.3,61.5,59.5,93,82,52,29.90,29.79,8,2,9,0.00
2013-8-14,86.4,68.7,60.2,67.8,61.7,58.4,95,80,53,29.85,29.76,8,2,11,0.00
2013-8-15,83.7,66.9,62.0,66.9,62.0,60.0,94,86,56,29.86,29.80,8,1,10,0.00
2013-8-16,90.8,70.7,62.7,66.7,62.4,58.3,95,79,35,29.88,29.81,9,1,9,0.00
2013-8-17,88.4,73.9,63.0,66.9,62.8,58.0,95,71,37,29.87,29.72,8,2,8,0.00
2013-8-18,79.6,68.4,61.4,65.7,62.1,59.7,94,82,58,29.84,29.74,10,2,12,0.00
2013-8-19,83.3,70.1,64.3,67.2,63.1,61.3,90,80,57,29.87,29.78,11,2,11,0.00
2013-8-21,92.1,80.0,64.1,64.4,61.6,56.9,90,56,36,29.84,29.74,9,2,11,0.00
2013-8-22,94.0,75.1,62.5,63.8,58.5,43.6,90,62,18,29.84,29.71,10,1,10,0.00
2013-8-23,92.2,73.3,61.8,63.8,59.5,53.4,91,67,32,29.78,29.65,8,1,8,0.00
2013-8-24,83.5,66.0,58.5,64.2,60.3,56.8,95,84,49,29.75,29.73,4,1,6,0.00
2013-8-25,61.0,60.8,60.7,59.9,59.5,59.3,96,95,95,29.82,29.81,2,0,3,0.00
2013-8-26,92.7,74.5,66.1,67.9,62.7,58.2,85,69,42,29.84,29.72,11,1,11,0.00
2013-8-27,93.4,77.6,66.7,65.6,61.3,49.2,87,61,24,29.76,29.67,8,2,10,0.00
2013-8-28,96.2,85.7,71.1,66.3,62.1,55.8,77,47,34,29.81,29.71,11,2,11,0.00
2013-8-29,98.7,82.4,68.3,67.4,61.8,54.4,80,53,28,29.83,29.77,11,2,12,0.00
2013-8-30,91.6,82.5,75.7,73.5,66.1,59.5,63,58,47,29.88,29.80,13,2,16,0.00
2013-8-31,90.8,81.5,76.1,73.9,70.6,68.5,78,70,56,29.87,29.78,10,2,13,0.00
2013-9-1,91.3,81.1,71.2,73.0,69.4,64.8,83,68,54,29.84,29.75,6,2,10,0.00
2013-9-2,88.7,77.5,66.9,71.5,67.9,64.4,93,74,55,29.83,29.71,6,1,9,0.00
2013-9-3,97.5,82.4,70.9,71.4,66.9,60.7,89,64,30,29.81,29.72,8,1,12,0.00
2013-9-4,100.2,80.6,69.7,68.4,64.8,58.6,87,64,30,29.81,29.74,11,2,12,0.00
2013-9-5,92.5,77.9,69.2,66.5,63.5,60.0,82,64,34,29.80,29.74,5,1,5,0.00
2013-9-6,101.8,86.0,71.1,69.9,61.7,52.3,79,48,21,29.78,29.69,11,1,11,0.00
2013-9-7,97.4,81.1,69.3,67.2,62.3,52.8,81,57,24,29.77,29.70,11,2,13,0.00
2013-9-8,92.2,74.9,65.5,66.0,61.9,53.5,88,68,29,29.77,29.66,9,1,10,0.00
2013-9-9,82.8,73.9,65.7,64.5,61.7,60.2,84,67,48,29.73,29.65,10,2,11,0.00
2013-9-10,79.6,71.6,63.9,64.1,61.6,59.1,88,72,56,29.85,29.77,11,3,13,0.00
2013-9-11,81.7,72.3,63.5,63.9,61.0,58.9,85,69,54,29.92,29.83,13,3,14,0.00
2013-9-12,89.3,80.2,61.1,64.7,62.1,58.0,94,57,37,29.86,29.73,7,2,8,0.00
2013-9-13,90.5,68.7,59.4,66.3,60.3,57.1,93,78,34,29.76,29.59,7,1,7,0.00
2013-9-14,91.2,80.1,59.6,67.0,63.2,57.0,93,59,39,29.64,29.53,8,2,9,0.00
2013-9-15,82.5,71.3,64.0,68.3,65.3,62.5,97,83,56,29.68,29.60,6,1,7,0.00
2013-9-16,93.7,81.9,63.9,66.5,62.6,58.6,91,55,33,29.73,29.64,9,2,11,0.00
2013-9-17,76.8,71.1,62.7,64.3,62.8,61.1,96,76,62,29.75,29.65,10,3,12,0.00
2013-9-18,75.7,70.9,61.6,61.9,59.9,56.4,84,69,60,29.74,29.65,9,3,12,0.00
2013-9-19,78.8,72.8,63.9,64.6,62.7,60.3,89,71,60,29.75,29.67,12,3,12,0.00
2013-9-20,70.1,67.4,64.1,63.9,62.2,60.5,89,84,79,29.81,29.76,8,2,11,0.00
2013-9-21,75.5,69.9,65.0,60.6,59.3,57.9,84,69,58,29.84,29.73,9,3,12,0.00
2013-9-22,74.8,69.8,61.5,60.7,57.9,52.9,91,67,55,29.78,29.70,11,3,13,0.00
2013-9-23,92.5,82.2,57.0,56.9,51.3,43.1,83,38,19,29.81,29.72,9,2,11,0.00
2013-9-24,83.8,77.4,66.4,56.8,51.0,47.8,67,40,33,29.85,29.76,7,2,7,0.00
2013-9-25,72.7,67.9,59.6,62.1,59.6,54.2,88,75,67,29.78,29.64,10,5,17,0.00
2013-9-26,73.1,67.5,60.3,57.7,53.0,47.0,79,61,44,29.80,29.69,13,3,18,0.00
2013-9-27,83.1,75.2,58.0,56.8,47.4,36.2,72,41,21,29.90,29.82,10,3,14,0.00
2013-9-28,87.5,78.9,65.3,47.2,39.6,33.7,49,27,15,29.94,29.87,9,2,12,0.00
2013-9-29,88.7,71.2,55.2,54.4,42.3,32.7,62,39,14,29.97,29.88,5,1,11,0.00
2013-9-30,85.5,75.4,54.5,61.3,51.1,40.1,82,46,24,29.91,29.77,6,2,9,0.00
2013-10-1,78.3,73.0,63.1,62.5,59.8,55.1,81,64,51,29.86,29.79,8,4,12,0.00
2013-10-2,75.1,68.0,62.7,61.5,59.1,56.6,83,74,59,29.90,29.80,10,3,11,0.00
2013-10-3,71.8,68.5,63.0,61.1,59.8,57.7,85,74,68,29.85,29.75,10,4,14,0.00
2013-10-4,77.5,63.9,58.4,60.3,57.0,48.8,92,80,37,29.89,29.82,4,1,8,0.00
2013-10-5,75.2,73.6,72.6,31.1,30.0,27.4,21,20,17,30.00,30.00,1,1,6,0.00
2013-10-6,92.7,76.1,61.0,40.0,28.3,17.9,37,19,7,29.99,29.86,6,2,16,0.00
2013-10-7,76.1,69.2,58.4,47.3,39.3,33.8,48,34,25,29.89,29.84,5,1,8,0.00
2013-10-8,75.1,65.1,57.4,58.8,55.9,47.1,91,72,37,29.89,29.75,10,3,14,0.00
2013-10-9,64.2,59.5,54.8,54.1,52.4,50.2,91,78,64,29.75,29.66,15,4,19,0.18
2013-10-10,67.7,62.7,47.5,53.8,50.6,46.1,95,66,52,29.94,29.74,10,2,14,0.16
2013-10-11,75.6,64.9,50.1,57.0,53.9,47.4,91,69,47,29.98,29.85,9,2,12,0.00
2013-10-12,53.0,52.4,52.1,51.6,50.9,50.4,95,95,94,29.89,29.88,0,0,1,0.00
2013-10-13,68.0,64.6,59.1,57.8,55.8,53.6,90,73,67,29.92,29.86,10,3,11,0.00
2013-10-14,83.5,71.8,50.8,59.3,54.9,49.4,95,59,32,29.95,29.81,7,2,10,0.00
2013-10-15,84.3,72.9,56.3,57.3,41.4,32.2,88,37,16,29.89,29.79,10,2,14,0.00
2013-10-16,73.0,65.7,57.8,48.9,40.4,33.6,55,40,26,29.98,29.90,2,0,5,0.00
2013-10-17,82.5,68.9,55.8,53.1,44.8,32.2,78,46,20,29.96,29.84,10,1,13,0.00
2013-10-18,83.2,66.9,53.5,54.7,49.1,40.7,79,55,30,29.94,29.84,5,1,9,0.00
2013-10-19,86.3,69.1,53.4,57.5,51.1,44.0,85,57,25,29.94,29.86,8,1,9,0.00
2013-10-20,78.4,63.6,49.2,60.8,54.9,46.4,94,76,43,29.92,29.82,5,1,8,0.00
2013-10-21,77.4,63.0,54.1,60.0,56.1,52.7,96,80,50,29.91,29.82,3,1,8,0.00
2013-10-22,75.9,61.3,54.0,60.8,56.9,52.6,97,86,57,29.93,29.82,4,1,9,0.01
2013-10-23,68.8,62.2,59.3,57.7,56.1,55.1,89,81,67,29.90,29.83,4,1,11,0.00
2013-10-24,70.3,63.2,60.1,58.2,55.7,54.3,84,77,61,29.98,29.88,10,2,12,0.00
2013-10-25,76.1,62.9,57.8,59.8,56.6,54.8,92,81,56,30.05,29.92,5,1,7,0.00
2013-10-26,76.7,58.5,54.4,61.8,55.9,53.0,97,91,60,30.02,29.88,3,0,6,0.00
2013-10-27,73.2,58.3,55.8,61.2,56.4,55.0,98,94,64,29.90,29.77,9,1,11,0.02
2013-10-28,63.0,60.0,58.1,56.4,52.6,50.3,91,77,70,29.84,29.76,11,3,14,0.01
2013-10-29,65.1,58.1,50.6,51.5,50.0,47.8,91,75,56,29.94,29.88,8,1,13,0.00
2013-10-30,69.2,55.7,48.3,53.2,48.6,44.6,91,78,53,30.00,29.94,6,1,7,0.00
2013-10-31,79.6,68.4,48.6,51.4,46.3,40.2,89,48,28,30.02,29.90,9,2,9,0.00
2013-11-1,78.8,66.2,51.8,49.0,44.8,39.5,68,48,28,30.02,30.00,3,0,5,0.00
2013-11-2,80.8,65.5,56.0,58.9,46.0,35.9,92,53,21,29.92,29.81,6,2,12,0.00
2013-11-3,66.9,60.8,54.6,56.3,54.5,52.3,94,80,65,29.85,29.76,5,2,12,0.00
2013-11-4,64.8,61.5,57.3,54.2,52.7,50.5,80,73,62,29.81,29.73,8,3,12,0.00
2013-11-5,76.9,63.0,49.0,55.7,31.2,15.8,93,38,11,30.06,29.87,10,1,11,0.00
2013-11-6,80.2,60.9,48.8,40.7,29.2,16.0,48,32,11,30.13,30.00,6,1,7,0.00
2013-11-7,84.0,64.4,53.6,43.7,29.3,20.8,43,29,10,30.03,29.91,3,1,8,0.00
2013-11-8,77.7,64.8,51.6,55.7,45.8,27.7,96,57,20,29.96,29.85,5,1,9,0.00
2013-11-9,76.5,59.5,45.3,55.6,45.5,29.6,97,69,18,30.00,29.92,8,1,9,0.01
2013-11-10,68.7,62.2,59.5,49.5,47.2,40.0,66,59,35,30.07,30.04,3,1,4,0.00
2013-11-11,77.9,63.3,48.9,54.3,50.6,37.0,91,66,34,30.06,29.94,5,1,8,0.00
2013-11-12,74.8,59.4,52.0,56.8,51.6,46.7,93,77,43,30.10,29.98,3,0,6,0.00
2013-11-13,90.7,81.3,58.0,49.8,45.3,42.2,68,31,19,29.98,29.80,6,2,8,0.00
2013-11-14,85.0,75.7,65.6,47.4,42.7,38.2,45,32,19,29.85,29.82,2,1,3,0.00
2013-11-15,64.7,62.8,56.8,57.1,56.1,54.5,94,79,71,29.70,29.60,9,4,17,0.00
2013-11-16,65.9,62.6,56.7,54.5,49.4,46.9,90,63,52,29.82,29.77,9,3,15,0.00
2013-11-17,67.4,61.6,54.1,54.8,52.5,50.8,90,73,56,30.02,29.93,9,2,11,0.00
2013-11-18,68.2,58.7,50.3,57.0,53.0,48.4,96,82,62,30.09,29.97,6,1,11,0.00
2013-11-19,63.5,58.9,55.5,55.6,53.9,52.6,91,84,70,30.02,29.89,8,1,10,0.00
2013-11-20,65.9,60.7,57.1,56.5,55.4,54.2,95,83,67,29.91,29.82,6,2,8,0.09
2013-11-21,59.8,58.6,57.4,58.8,57.6,56.0,97,97,95,29.82,29.77,10,3,11,0.35
2013-11-22,58.9,53.8,50.0,54.1,48.0,43.6,97,81,68,29.89,29.76,5,1,8,0.05
2013-11-23,65.2,54.9,47.1,49.7,46.1,42.5,87,73,49,30.02,29.89,9,1,10,0.00
2013-11-24,65.4,54.8,44.9,52.2,46.8,41.1,88,75,53,30.12,30.01,11,1,12,0.00
2013-11-25,70.8,57.0,45.5,51.6,46.0,41.6,88,69,42,30.17,30.08,7,1,10,0.00
2013-11-26,75.5,60.7,47.0,48.9,43.6,37.2,84,56,29,30.12,29.97,7,1,12,0.00
2013-11-27,72.6,60.9,50.8,49.3,44.5,37.8,81,56,35,29.97,29.81,7,1,9,0.00
2013-11-28,66.9,56.4,47.5,51.4,45.6,39.8,82,68,49,29.99,29.82,11,1,12,0.00
2013-11-29,58.6,55.4,54.2,54.4,51.0,47.9,91,85,79,30.10,29.99,5,0,8,0.09
2013-11-30,73.8,64.3,50.9,54.5,51.0,48.0,92,64,44,30.11,29.99,6,1,8,0.00
2013-12-1,78.5,59.8,50.6,48.8,46.2,43.5,85,65,29,30.12,30.00,5,1,7,0.00
2013-12-2,74.0,68.2,52.4,48.8,42.6,30.9,55,40,29,30.04,29.86,7,1,8,0.00
2013-12-3,63.0,59.3,51.7,54.6,52.7,41.5,83,79,68,29.82,29.69,11,3,14,0.00
2013-12-4,60.3,53.6,45.9,47.5,40.8,38.0,81,62,48,29.91,29.73,8,2,14,0.00
2013-12-5,59.4,50.6,44.1,42.2,38.7,34.5,80,65,40,29.97,29.89,7,2,10,0.00
2013-12-6,57.3,49.1,44.4,42.7,40.3,38.6,83,72,55,30.11,30.04,5,1,15,0.00
2013-12-7,55.9,50.6,43.5,52.4,44.0,38.5,93,78,66,30.07,29.95,15,2,18,0.19
2013-12-8,55.8,46.9,39.8,44.1,39.0,35.3,90,75,53,30.14,30.03,8,1,9,0.00
2013-12-9,60.7,46.3,34.8,35.8,24.8,15.0,86,48,18,30.21,30.11,10,1,16,0.00
2013-12-10,66.3,50.9,38.8,37.2,27.5,15.1,65,42,16,30.19,30.01,6,1,9,0.00
2013-12-11,69.9,56.3,43.3,41.3,32.1,22.8,66,42,21,30.10,30.02,9,1,11,0.00
2013-12-12,66.6,54.6,45.2,50.0,41.3,28.7,93,65,24,30.14,30.06,7,1,9,0.00
2013-12-13,65.6,52.9,41.4,50.8,44.8,37.0,94,76,40,30.16,30.05,7,1,9,0.00
2013-12-14,74.1,56.8,41.6,49.9,38.1,27.3,96,57,19,30.22,30.10,7,1,11,0.01
2013-12-15,83.3,63.6,48.4,49.5,34.5,23.6,61,37,12,30.16,29.98,5,1,10,0.00
2013-12-16,83.9,66.7,54.5,44.9,36.2,30.4,55,34,17,30.05,29.96,6,1,11,0.00
2013-12-17,77.5,66.2,56.5,53.7,44.2,33.1,78,46,31,30.05,29.92,4,1,6,0.00
2013-12-18,69.8,60.8,55.9,55.2,49.9,43.9,83,68,42,29.92,29.80,8,2,12,0.00
2013-12-19,55.1,50.4,43.3,50.9,47.0,41.4,94,88,79,29.81,29.66,10,1,13,0.09
2013-12-20,60.1,49.9,40.4,50.7,45.3,39.1,96,85,64,29.89,29.70,7,1,9,0.01
2013-12-21,60.4,51.6,44.5,50.4,46.0,40.8,92,82,67,30.02,29.86,7,1,9,0.00
2013-12-22,69.9,54.8,43.8,51.7,47.7,42.0,95,79,49,30.19,30.02,6,0,7,0.00
2013-12-23,77.0,60.0,46.4,47.4,42.0,38.0,92,56,25,30.23,30.11,8,1,10,0.00
2013-12-24,77.2,61.9,50.6,50.7,41.9,36.2,71,50,27,30.12,30.00,5,1,7,0.00
2013-12-25,81.3,65.7,52.2,43.3,29.5,15.9,69,29,11,30.11,30.01,6,1,18,0.00
2013-12-26,81.2,64.1,51.8,42.5,22.6,12.6,53,24,8,30.09,29.97,6,1,11,0.00
2013-12-27,81.6,63.7,48.7,37.0,26.2,16.4,45,26,9,30.08,29.96,5,1,7,0.00
2013-12-28,72.5,57.7,46.9,52.0,36.5,23.3,87,49,16,29.98,29.86,9,2,12,0.00
2013-12-29,76.3,60.1,43.2,51.7,27.9,5.7,95,41,7,30.08,29.92,8,2,17,0.00
2013-12-30,74.6,59.0,45.0,33.1,24.6,14.7,50,29,11,30.19,30.07,6,1,8,0.00
2013-12-31,71.6,56.2,45.1,46.6,35.7,22.2,83,49,21,30.13,30.00,4,1,7,0.00
2014-1-1,71.4,55.3,42.0,53.8,46.1,38.6,91,73,37,30.06,29.96,5,1,6,0.00
2014-1-2,78.6,60.6,46.3,46.8,39.4,29.9,80,50,17,30.03,29.92,4,1,6,0.00